{"data":{"norad_id":65757,"epoch":"2026-05-24T21:58:57.336096Z","epoch_age_seconds":82021,"freshness":"FRESH","line1":"1 65757U 25216Z   26144.91594139  .00006103  00000+0  21799-3 0  9994","line2":"2 65757  53.1603 338.8600 0001084  92.4513 267.6612 15.30200153 38219","mean_motion":15.30200153,"eccentricity":0.0001084,"inclination_deg":53.1603,"raan_deg":338.86,"arg_perigee_deg":92.4513,"mean_anomaly_deg":267.6612,"bstar":0.00021799,"rev_number":3821,"period_min":94.10533629714,"perigee_km":474.47170927414,"apogee_km":475.95751590375,"semimajor_km":6853.3516125889,"source":"CELESTRAK","updated_at":"2026-05-25T13:38:20.934473Z"}}